Change the Weather History Date:

Wednesday, December 19, 2012

  Actual Average Record
Temperature  
Mean Temperature 64 °F -  
Max Temperature 71 °F - - ()
Min Temperature 58 °F - - ()
Growing Degree Days 14 (Base 50)    
Moisture  
Dew Point 57 °F    
Average Humidity 77    
Maximum Humidity 93    
Minimum Humidity 58    
Precipitation  
Precipitation 0.00 in - - ()
Sea Level Pressure  
Sea Level Pressure 30.18 in    
Wind  
Wind Speed 7 mph ()    
Max Wind Speed 14 mph    
Max Gust Speed -    
Visibility 6.2 miles    
Events      
T = Trace of Precipitation, MM = Missing Value Source: Averaged Metar Reports

Daily Weather History Graph

Daily Weather History Graph

Search for Another Location

Airport or City:

Trip Planner

Search our weather history database for the weather conditions in past years. The results will help you decide how hot, cold, wet, or windy it might be!

Date:

Astronomy

Dec. 19, 2012 Rise Set
Actual Time 6:14 AM AST 4:49 PM AST
Civil Twilight 5:49 AM AST 5:14 PM AST
Nautical Twilight 5:21 AM AST 5:42 PM AST
Astronomical Twilight 4:53 AM AST 6:10 PM AST
Moon 10:48 AM AST (12/19) 11:12 PM AST (12/19)
Length of Visible Light 11h 24m
Length of Day
10h 34m
Waxing Crescent, 41% of the Moon is Illuminated
Dec 19
Waxing Crescent
Dec 20
First Quarter
Dec 28
Full
Jan 5
Last Quarter
Jan 11
New

Hourly Weather History & Observations

Time (AST) Temp. Dew Point Humidity Pressure Visibility Wind Dir Wind Speed Gust Speed Precip Events Conditions
12:55 AM 60.8 °F 56.7 °F 86% 30.19 in 6.2 mi NNW 9.2 mph - N/A   Clear
1:55 AM 62.2 °F 55.4 °F 78% 30.18 in 6.2 mi NNW 5.8 mph - N/A   Clear
2:55 AM 59.7 °F 55.6 °F 86% 30.18 in 6.2 mi NW 5.8 mph - N/A   Clear
3:55 AM 59.0 °F 55.2 °F 87% 30.18 in 6.2 mi NNW 5.8 mph - N/A   Clear
4:55 AM 58.8 °F 54.7 °F 86% 30.18 in 6.2 mi NNW 5.8 mph - N/A   Clear
5:55 AM 58.6 °F 55.0 °F 88% 30.20 in 6.2 mi NNW 4.6 mph - N/A   Partly Cloudy
6:55 AM 59.4 °F 54.9 °F 85% 30.23 in 6.2 mi NW 8.1 mph - N/A   Partly Cloudy
7:55 AM 62.4 °F 55.4 °F 78% 30.25 in 6.2 mi NW 5.8 mph - N/A   Clear
8:55 AM 67.1 °F 55.6 °F 66% 30.27 in 6.2 mi NNW 10.4 mph - N/A   Clear
9:55 AM 70.7 °F 55.2 °F 58% 30.26 in 6.2 mi NW 13.8 mph - N/A   Scattered Clouds
10:55 AM 71.1 °F 57.2 °F 61% 30.24 in 6.2 mi NNW 12.7 mph - N/A   Mostly Cloudy
11:55 AM 70.9 °F 55.8 °F 59% 30.21 in 6.2 mi NNW 13.8 mph - N/A   Mostly Cloudy
12:55 PM 70.2 °F 55.0 °F 59% 30.18 in 6.2 mi North 11.5 mph - N/A   Scattered Clouds
1:55 PM 70.9 °F 57.2 °F 62% 30.16 in 6.2 mi NNE 8.1 mph - N/A   Scattered Clouds
2:55 PM 71.1 °F 58.5 °F 64% 30.12 in 6.2 mi ENE 12.7 mph - N/A   Clear
3:55 PM 71.2 °F 58.6 °F 64% 30.11 in 6.2 mi East 10.4 mph - N/A   Partly Cloudy
4:55 PM 69.8 °F 60.1 °F 71% 30.13 in 6.2 mi ENE 5.8 mph - N/A   Clear
5:55 PM 68.0 °F 60.4 °F 77% 30.15 in 6.2 mi North 5.8 mph - N/A   Clear
6:55 PM 64.0 °F 59.9 °F 86% 30.16 in 6.2 mi NNW 6.9 mph - N/A   Clear
7:55 PM 63.9 °F 59.7 °F 86% 30.16 in 6.2 mi NNW 4.6 mph - N/A   Clear
8:55 PM 62.8 °F 59.4 °F 89% 30.16 in 6.2 mi NNW 3.5 mph - N/A   Clear
9:55 PM 61.0 °F 58.8 °F 93% 30.15 in 6.2 mi NW 3.5 mph - N/A   Clear
10:55 PM 61.2 °F 58.8 °F 92% 30.13 in 6.2 mi NNW 6.9 mph - N/A   Clear
11:55 PM 60.8 °F 58.8 °F 93% 30.12 in 6.2 mi NNW 5.8 mph - N/A   Clear